Location: York
(31.8935°S, 116.7682°E)
Time: 17:47:25
(UTC+08:00)

deb Explorer IX - Pass Details

Date: 03 October 2022
Orbit: 533 x 1057 km, 38.8° (Epoch: 30 November)

Event Time Altitude Azimuth Distance (km) Brightness Sun altitude
Rises 20:50:39 0° 255° (WSW) 3,397 ? -32.1°
Reaches altitude 10° 20:53:32 10° 247° (WSW) 2,367 ? -32.6°
Enters shadow 20:57:27 33° 210° (SSW) 1,212 ? -33.3°
Maximum altitude 20:58:39 38° 179° (S) 1,083 - -33.5°
Drops below altitude 10° 21:03:06 10° 110° (ESE) 2,046 - -34.3°
Sets 21:05:26 0° 101° (ESE) 2,883 - -34.8°
